Time,TemperatureF,DewpointF,PressureIn,WindDirection,WindDirectionDegrees,WindSpeedMPH,WindSpeedGustMPH,Humidity,HourlyPrecipIn,Conditions,Clouds,dailyrainin,SoftwareType,DateUTC
2013-04-20 00:02:00,46.5,35.7,30.14,NNW,346,0.0,4.0,66,0.00,,,0.00,WUHU216DAVISVP2,2013-04-20 04:02:00,
2013-04-20 00:07:00,46.5,36.6,30.14,South,190,0.0,4.0,68,0.00,,,0.00,WUHU216DAVISVP2,2013-04-20 04:07:00,
2013-04-20 00:12:00,46.3,36.4,30.14,South,190,0.0,4.0,68,0.00,,,0.00,WUHU216DAVISVP2,2013-04-20 04:12:00,
2013-04-20 00:17:00,46.1,35.1,30.14,SSW,196,0.0,4.0,65,0.00,,,0.00,WUHU216DAVISVP2,2013-04-20 04:17:00,
2013-04-20 00:22:00,46.0,35.4,30.14,SSE,152,0.0,3.0,66,0.00,,,0.00,WUHU216DAVISVP2,2013-04-20 04:22:00,
2013-04-20 00:27:00,45.8,35.2,30.15,SSE,165,0.0,4.0,66,0.00,,,0.00,WUHU216DAVISVP2,2013-04-20 04:27:00,
2013-04-20 00:32:00,45.6,34.6,30.15,South,187,0.0,4.0,65,0.00,,,0.00,WUHU216DAVISVP2,2013-04-20 04:32:00,
2013-04-20 00:37:00,45.4,35.2,30.15,SSE,165,0.0,5.0,67,0.00,,,0.00,WUHU216DAVISVP2,2013-04-20 04:37:00,
2013-04-20 00:42:00,45.4,34.4,30.15,NNW,330,1.0,5.0,65,0.00,,,0.00,WUHU216DAVISVP2,2013-04-20 04:42:00,
2013-04-20 00:47:00,45.3,34.7,30.15,SW,220,0.0,5.0,66,0.00,,,0.00,WUHU216DAVISVP2,2013-04-20 04:47:00,
2013-04-20 00:53:00,45.2,34.2,30.15,SW,232,0.0,6.0,65,0.00,,,0.00,WUHU216DAVISVP2,2013-04-20 04:53:00,
2013-04-20 00:58:00,45.1,34.5,30.15,SW,223,0.0,6.0,66,0.00,,,0.00,WUHU216DAVISVP2,2013-04-20 04:58:00,
2013-04-20 01:03:00,44.9,34.7,30.16,SW,223,0.0,6.0,67,0.00,,,0.00,WUHU216DAVISVP2,2013-04-20 05:03:00,
2013-04-20 01:08:00,44.7,34.5,30.16,SW,223,0.0,4.0,67,0.00,,,0.00,WUHU216DAVISVP2,2013-04-20 05:08:00,
2013-04-20 01:13:00,44.5,33.9,30.16,SE,131,0.0,4.0,66,0.00,,,0.00,WUHU216DAVISVP2,2013-04-20 05:13:00,
2013-04-20 01:18:00,44.4,35.0,30.15,SE,131,0.0,4.0,69,0.00,,,0.00,WUHU216DAVISVP2,2013-04-20 05:18:00,
2013-04-20 01:23:00,44.2,34.3,30.15,ESE,121,0.0,4.0,68,0.00,,,0.00,WUHU216DAVISVP2,2013-04-20 05:23:00,
2013-04-20 01:28:00,44.0,33.7,30.15,South,184,0.0,4.0,67,0.00,,,0.00,WUHU216DAVISVP2,2013-04-20 05:28:00,
2013-04-20 01:33:00,43.9,34.4,30.15,South,184,0.0,3.0,69,0.00,,,0.00,WUHU216DAVISVP2,2013-04-20 05:33:00,
2013-04-20 01:38:00,43.7,33.6,30.15,South,184,0.0,3.0,67,0.00,,,0.00,WUHU216DAVISVP2,2013-04-20 05:38:00,
2013-04-20 01:43:00,43.6,34.2,30.15,South,184,0.0,3.0,69,0.00,,,0.00,WUHU216DAVISVP2,2013-04-20 05:43:00,
2013-04-20 01:48:00,43.3,33.5,30.15,ESE,122,0.0,4.0,68,0.00,,,0.00,WUHU216DAVISVP2,2013-04-20 05:48:00,
2013-04-20 01:53:00,43.1,33.3,30.15,ESE,121,0.0,4.0,68,0.00,,,0.00,WUHU216DAVISVP2,2013-04-20 05:53:00,
2013-04-20 01:58:00,42.9,34.2,30.16,ESE,121,0.0,4.0,71,0.00,,,0.00,WUHU216DAVISVP2,2013-04-20 05:58:00,
2013-04-20 02:03:00,42.6,34.3,30.16,ESE,122,1.0,4.0,72,0.00,,,0.00,WUHU216DAVISVP2,2013-04-20 06:03:00,
2013-04-20 02:09:00,42.3,34.0,30.16,ESE,121,0.0,1.0,72,0.00,,,0.00,WUHU216DAVISVP2,2013-04-20 06:09:00,
2013-04-20 02:14:00,42.1,33.8,30.16,ESE,121,0.0,1.0,72,0.00,,,0.00,WUHU216DAVISVP2,2013-04-20 06:14:00,
2013-04-20 02:19:00,41.9,34.3,30.16,ESE,121,0.0,1.0,74,0.00,,,0.00,WUHU216DAVISVP2,2013-04-20 06:19:00,
2013-04-20 02:24:00,41.7,33.7,30.16,ESE,122,0.0,1.0,73,0.00,,,0.00,WUHU216DAVISVP2,2013-04-20 06:24:00,
2013-04-20 02:29:00,41.6,34.6,30.16,ESE,122,0.0,1.0,76,0.00,,,0.00,WUHU216DAVISVP2,2013-04-20 06:29:00,
2013-04-20 02:34:00,41.3,34.6,30.16,ESE,122,1.0,2.0,77,0.00,,,0.00,WUHU216DAVISVP2,2013-04-20 06:34:00,
2013-04-20 02:39:00,40.8,34.8,30.16,ESE,121,0.0,2.0,79,0.00,,,0.00,WUHU216DAVISVP2,2013-04-20 06:39:00,
2013-04-20 02:44:00,40.4,34.4,30.16,ESE,122,0.0,2.0,79,0.00,,,0.00,WUHU216DAVISVP2,2013-04-20 06:44:00,
2013-04-20 02:49:00,40.0,34.3,30.16,ESE,121,0.0,2.0,80,0.00,,,0.00,WUHU216DAVISVP2,2013-04-20 06:49:00,
2013-04-20 02:54:00,39.7,34.7,30.16,ESE,121,0.0,2.0,82,0.00,,,0.00,WUHU216DAVISVP2,2013-04-20 06:54:00,
2013-04-20 02:59:00,39.4,34.4,30.16,ESE,122,0.0,0.0,82,0.00,,,0.00,WUHU216DAVISVP2,2013-04-20 06:59:00,
2013-04-20 03:04:00,39.1,34.4,30.16,ESE,122,0.0,0.0,83,0.00,,,0.00,WUHU216DAVISVP2,2013-04-20 07:04:00,
2013-04-20 03:10:00,38.7,34.3,30.16,ESE,122,0.0,0.0,84,0.00,,,0.00,WUHU216DAVISVP2,2013-04-20 07:10:00,
2013-04-20 03:15:00,38.4,34.0,30.16,ESE,122,0.0,0.0,84,0.00,,,0.00,WUHU216DAVISVP2,2013-04-20 07:15:00,
2013-04-20 03:20:00,38.2,34.1,30.16,ESE,121,0.0,0.0,85,0.00,,,0.00,WUHU216DAVISVP2,2013-04-20 07:20:00,
2013-04-20 03:25:00,37.9,34.1,30.16,ESE,121,0.0,0.0,86,0.00,,,0.00,WUHU216DAVISVP2,2013-04-20 07:25:00,
2013-04-20 03:30:00,37.7,33.9,30.16,ESE,121,0.0,0.0,86,0.00,,,0.00,WUHU216DAVISVP2,2013-04-20 07:30:00,
2013-04-20 03:35:00,37.4,33.6,30.16,ESE,121,0.0,0.0,86,0.00,,,0.00,WUHU216DAVISVP2,2013-04-20 07:35:00,
2013-04-20 03:40:00,37.2,33.4,30.17,ESE,122,0.0,0.0,86,0.00,,,0.00,WUHU216DAVISVP2,2013-04-20 07:40:00,
2013-04-20 03:45:00,37.0,33.2,30.17,ESE,121,0.0,0.0,86,0.00,,,0.00,WUHU216DAVISVP2,2013-04-20 07:45:00,
2013-04-20 03:50:00,36.8,33.0,30.17,ESE,121,0.0,0.0,86,0.00,,,0.00,WUHU216DAVISVP2,2013-04-20 07:50:00,
2013-04-20 03:55:00,36.7,34.5,30.17,ESE,121,0.0,0.0,92,0.00,,,0.00,WUHU216DAVISVP2,2013-04-20 07:55:00,
2013-04-20 04:00:00,36.5,32.7,30.17,ESE,122,0.0,0.0,86,0.00,,,0.00,WUHU216DAVISVP2,2013-04-20 08:00:00,
2013-04-20 04:05:00,36.4,32.9,30.17,ESE,121,0.0,0.0,87,0.00,,,0.00,WUHU216DAVISVP2,2013-04-20 08:05:00,
2013-04-20 04:10:00,36.3,32.8,30.17,ESE,121,0.0,0.0,87,0.00,,,0.00,WUHU216DAVISVP2,2013-04-20 08:10:00,
2013-04-20 04:15:00,36.2,32.7,30.17,ESE,122,0.0,0.0,87,0.00,,,0.00,WUHU216DAVISVP2,2013-04-20 08:15:00,
2013-04-20 04:21:00,36.1,32.9,30.17,ESE,122,0.0,0.0,88,0.00,,,0.00,WUHU216DAVISVP2,2013-04-20 08:21:00,
2013-04-20 04:26:00,36.0,32.8,30.17,ESE,122,0.0,0.0,88,0.00,,,0.00,WUHU216DAVISVP2,2013-04-20 08:26:00,
2013-04-20 04:31:00,36.0,33.0,30.17,ESE,122,0.0,0.0,89,0.00,,,0.00,WUHU216DAVISVP2,2013-04-20 08:31:00,
2013-04-20 04:36:00,35.9,32.9,30.17,ESE,122,0.0,0.0,89,0.00,,,0.00,WUHU216DAVISVP2,2013-04-20 08:36:00,
2013-04-20 04:41:00,35.9,33.2,30.17,ESE,121,0.0,0.0,90,0.00,,,0.00,WUHU216DAVISVP2,2013-04-20 08:41:00,
2013-04-20 04:46:00,35.9,33.2,30.17,ESE,122,0.0,0.0,90,0.00,,,0.00,WUHU216DAVISVP2,2013-04-20 08:46:00,
2013-04-20 04:51:00,35.8,33.1,30.17,ESE,121,0.0,0.0,90,0.00,,,0.00,WUHU216DAVISVP2,2013-04-20 08:51:00,
2013-04-20 04:56:00,35.7,33.0,30.18,ESE,122,0.0,1.0,90,0.00,,,0.00,WUHU216DAVISVP2,2013-04-20 08:56:00,
2013-04-20 05:01:00,35.6,32.9,30.18,ESE,122,0.0,1.0,90,0.00,,,0.00,WUHU216DAVISVP2,2013-04-20 09:01:00,
2013-04-20 05:06:00,35.5,32.9,30.18,ESE,122,0.0,1.0,90,0.00,,,0.00,WUHU216DAVISVP2,2013-04-20 09:06:00,
2013-04-20 05:11:00,35.4,33.0,30.18,ESE,121,0.0,1.0,91,0.00,,,0.00,WUHU216DAVISVP2,2013-04-20 09:11:00,
2013-04-20 05:16:00,35.3,32.9,30.18,ESE,121,0.0,1.0,91,0.00,,,0.00,WUHU216DAVISVP2,2013-04-20 09:16:00,
2013-04-20 05:21:00,35.2,32.8,30.18,ESE,122,0.0,1.0,91,0.00,,,0.00,WUHU216DAVISVP2,2013-04-20 09:21:00,
2013-04-20 05:26:00,35.2,32.8,30.18,ESE,121,0.0,1.0,91,0.00,,,0.00,WUHU216DAVISVP2,2013-04-20 09:26:00,
2013-04-20 05:31:00,35.2,33.1,30.18,ESE,122,0.0,1.0,92,0.00,,,0.00,WUHU216DAVISVP2,2013-04-20 09:31:00,
2013-04-20 05:36:00,35.1,33.0,30.18,ESE,122,0.0,1.0,92,0.00,,,0.00,WUHU216DAVISVP2,2013-04-20 09:36:00,
2013-04-20 05:42:00,35.1,33.0,30.19,ESE,121,0.0,1.0,92,0.00,,,0.00,WUHU216DAVISVP2,2013-04-20 09:42:00,
2013-04-20 05:47:00,35.0,32.9,30.19,ESE,121,0.0,1.0,92,0.00,,,0.00,WUHU216DAVISVP2,2013-04-20 09:47:00,
2013-04-20 05:52:00,34.9,32.8,30.19,ESE,121,0.0,0.0,92,0.00,,,0.00,WUHU216DAVISVP2,2013-04-20 09:52:00,
2013-04-20 05:57:00,34.8,32.7,30.19,ESE,122,0.0,0.0,92,0.00,,,0.00,WUHU216DAVISVP2,2013-04-20 09:57:00,
2013-04-20 06:02:00,34.7,32.6,30.19,ESE,122,0.0,0.0,92,0.00,,,0.00,WUHU216DAVISVP2,2013-04-20 10:02:00,
2013-04-20 06:07:00,34.7,32.6,30.19,ESE,121,0.0,0.0,92,0.00,,,0.00,WUHU216DAVISVP2,2013-04-20 10:07:00,
2013-04-20 06:12:00,34.6,32.5,30.19,ESE,121,0.0,0.0,92,0.00,,,0.00,WUHU216DAVISVP2,2013-04-20 10:12:00,
2013-04-20 06:17:00,34.6,32.5,30.19,ESE,122,0.0,0.0,92,0.00,,,0.00,WUHU216DAVISVP2,2013-04-20 10:17:00,
2013-04-20 06:22:00,34.5,32.4,30.19,ESE,121,0.0,0.0,92,0.00,,,0.00,WUHU216DAVISVP2,2013-04-20 10:22:00,
2013-04-20 06:27:00,34.4,32.3,30.19,ESE,122,0.0,0.0,92,0.00,,,0.00,WUHU216DAVISVP2,2013-04-20 10:27:00,
2013-04-20 06:32:00,34.3,32.2,30.19,ESE,121,0.0,0.0,92,0.00,,,0.00,WUHU216DAVISVP2,2013-04-20 10:32:00,
2013-04-20 06:37:00,34.2,32.1,30.20,ESE,122,0.0,0.0,92,0.00,,,0.00,WUHU216DAVISVP2,2013-04-20 10:37:00,
2013-04-20 06:43:00,34.2,32.3,30.20,ESE,122,0.0,0.0,93,0.00,,,0.00,WUHU216DAVISVP2,2013-04-20 10:43:00,
2013-04-20 06:48:00,34.3,32.4,30.20,ESE,122,0.0,0.0,93,0.00,,,0.00,WUHU216DAVISVP2,2013-04-20 10:48:00,
2013-04-20 06:53:00,34.3,32.5,30.20,ESE,121,0.0,0.0,93,0.00,,,0.00,WUHU216DAVISVP2,2013-04-20 10:53:00,
2013-04-20 06:58:00,34.3,32.5,30.20,ESE,121,0.0,0.0,93,0.00,,,0.00,WUHU216DAVISVP2,2013-04-20 10:58:00,
2013-04-20 07:03:00,34.3,32.4,30.20,ESE,122,0.0,1.0,93,0.00,,,0.00,WUHU216DAVISVP2,2013-04-20 11:03:00,
2013-04-20 07:08:00,34.3,32.4,30.20,ESE,121,0.0,1.0,93,0.00,,,0.00,WUHU216DAVISVP2,2013-04-20 11:08:00,
2013-04-20 07:13:00,34.3,32.4,30.20,ESE,122,0.0,1.0,93,0.00,,,0.00,WUHU216DAVISVP2,2013-04-20 11:13:00,
2013-04-20 07:18:00,34.3,32.4,30.20,ESE,121,0.0,1.0,93,0.00,,,0.00,WUHU216DAVISVP2,2013-04-20 11:18:00,
2013-04-20 07:23:00,34.4,32.5,30.21,ESE,121,0.0,0.0,93,0.00,,,0.00,WUHU216DAVISVP2,2013-04-20 11:23:00,
2013-04-20 07:28:00,34.4,32.5,30.21,ESE,122,0.0,0.0,93,0.00,,,0.00,WUHU216DAVISVP2,2013-04-20 11:28:00,
2013-04-20 07:33:00,34.3,32.4,30.21,ESE,122,0.0,0.0,93,0.00,,,0.00,WUHU216DAVISVP2,2013-04-20 11:33:00,
2013-04-20 07:38:00,34.4,32.6,30.21,ESE,122,0.0,0.0,93,0.00,,,0.00,WUHU216DAVISVP2,2013-04-20 11:38:00,
2013-04-20 07:43:00,34.8,33.2,30.22,ESE,121,0.0,0.0,94,0.00,,,0.00,WUHU216DAVISVP2,2013-04-20 11:43:00,
2013-04-20 07:49:00,35.3,33.7,30.22,ESE,121,0.0,1.0,94,0.00,,,0.00,WUHU216DAVISVP2,2013-04-20 11:49:00,
2013-04-20 07:54:00,36.1,34.5,30.22,ESE,121,0.0,1.0,94,0.00,,,0.00,WUHU216DAVISVP2,2013-04-20 11:54:00,
2013-04-20 07:59:00,37.0,35.1,30.23,ESE,122,1.0,1.0,93,0.00,,,0.00,WUHU216DAVISVP2,2013-04-20 11:59:00,
2013-04-20 08:04:00,37.9,35.7,30.23,ESE,121,0.0,1.0,92,0.00,,,0.00,WUHU216DAVISVP2,2013-04-20 12:04:00,
2013-04-20 08:09:00,38.8,36.4,30.23,ESE,122,0.0,1.0,91,0.00,,,0.00,WUHU216DAVISVP2,2013-04-20 12:09:00,
2013-04-20 08:14:00,39.8,36.8,30.23,ESE,121,0.0,1.0,89,0.00,,,0.00,WUHU216DAVISVP2,2013-04-20 12:14:00,
2013-04-20 08:19:00,40.6,36.7,30.23,ESE,121,0.0,1.0,86,0.00,,,0.00,WUHU216DAVISVP2,2013-04-20 12:19:00,
2013-04-20 08:24:00,41.4,37.2,30.24,ESE,121,0.0,1.0,85,0.00,,,0.00,WUHU216DAVISVP2,2013-04-20 12:24:00,
2013-04-20 08:29:00,42.2,37.7,30.24,ESE,121,0.0,1.0,84,0.00,,,0.00,WUHU216DAVISVP2,2013-04-20 12:29:00,
2013-04-20 08:34:00,43.0,37.9,30.24,ESE,122,0.0,1.0,82,0.00,,,0.00,WUHU216DAVISVP2,2013-04-20 12:34:00,
2013-04-20 08:39:00,43.7,37.6,30.24,ESE,122,1.0,2.0,79,0.00,,,0.00,WUHU216DAVISVP2,2013-04-20 12:39:00,
2013-04-20 08:44:00,44.3,38.2,30.25,ESE,121,1.0,2.0,79,0.00,,,0.00,WUHU216DAVISVP2,2013-04-20 12:44:00,
2013-04-20 08:49:00,44.7,36.9,30.25,ESE,121,0.0,2.0,74,0.00,,,0.00,WUHU216DAVISVP2,2013-04-20 12:49:00,
2013-04-20 08:54:00,45.0,37.6,30.25,ESE,122,0.0,3.0,75,0.00,,,0.00,WUHU216DAVISVP2,2013-04-20 12:54:00,
2013-04-20 08:59:00,45.5,37.8,30.25,ESE,121,0.0,3.0,74,0.00,,,0.00,WUHU216DAVISVP2,2013-04-20 12:59:00,
2013-04-20 09:05:00,46.1,39.3,30.25,ESE,122,0.0,3.0,77,0.00,,,0.00,WUHU216DAVISVP2,2013-04-20 13:05:00,
2013-04-20 09:10:00,46.6,37.8,30.25,ESE,121,0.0,3.0,71,0.00,,,0.00,WUHU216DAVISVP2,2013-04-20 13:10:00,
2013-04-20 09:15:00,47.3,36.6,30.25,ESE,121,1.0,3.0,66,0.00,,,0.00,WUHU216DAVISVP2,2013-04-20 13:15:00,
2013-04-20 09:20:00,47.5,36.8,30.25,ESE,122,1.0,3.0,66,0.00,,,0.00,WUHU216DAVISVP2,2013-04-20 13:20:00,
2013-04-20 09:25:00,47.8,35.1,30.26,ESE,122,0.0,3.0,61,0.00,,,0.00,WUHU216DAVISVP2,2013-04-20 13:25:00,
2013-04-20 09:30:00,48.2,36.7,30.26,ESE,122,0.0,2.0,64,0.00,,,0.00,WUHU216DAVISVP2,2013-04-20 13:30:00,
2013-04-20 09:35:00,48.7,37.2,30.26,ESE,122,0.0,3.0,64,0.00,,,0.00,WUHU216DAVISVP2,2013-04-20 13:35:00,
2013-04-20 09:40:00,49.2,37.6,30.26,ENE,59,2.0,3.0,64,0.00,,,0.00,WUHU216DAVISVP2,2013-04-20 13:40:00,
2013-04-20 09:45:00,50.1,37.7,30.26,ENE,59,2.0,3.0,62,0.00,,,0.00,WUHU216DAVISVP2,2013-04-20 13:45:00,
2013-04-20 09:50:00,50.5,36.3,30.26,ENE,59,0.0,3.0,58,0.00,,,0.00,WUHU216DAVISVP2,2013-04-20 13:50:00,
2013-04-20 09:55:00,50.8,37.5,30.26,WNW,298,0.0,6.0,60,0.00,,,0.00,WUHU216DAVISVP2,2013-04-20 13:55:00,
2013-04-20 10:00:00,51.0,37.7,30.26,NW,316,1.0,6.0,60,0.00,,,0.00,WUHU216DAVISVP2,2013-04-20 14:00:00,
2013-04-20 10:05:00,51.2,37.9,30.26,WNW,298,0.0,6.0,60,0.00,,,0.00,WUHU216DAVISVP2,2013-04-20 14:05:00,
2013-04-20 10:10:00,51.6,37.8,30.26,WNW,298,0.0,6.0,59,0.00,,,0.00,WUHU216DAVISVP2,2013-04-20 14:10:00,
2013-04-20 10:15:00,51.1,36.9,30.26,WNW,298,1.0,3.0,58,0.00,,,0.00,WUHU216DAVISVP2,2013-04-20 14:15:00,
2013-04-20 10:21:00,51.4,38.1,30.27,NE,34,4.0,5.0,60,0.00,,,0.00,WUHU216DAVISVP2,2013-04-20 14:21:00,
2013-04-20 10:26:00,52.0,38.2,30.27,SE,138,0.0,5.0,59,0.00,,,0.00,WUHU216DAVISVP2,2013-04-20 14:26:00,
2013-04-20 10:31:00,52.8,39.4,30.27,NE,39,2.0,5.0,60,0.00,,,0.00,WUHU216DAVISVP2,2013-04-20 14:31:00,
2013-04-20 10:36:00,53.3,36.6,30.27,ENE,66,3.0,5.0,53,0.00,,,0.00,WUHU216DAVISVP2,2013-04-20 14:36:00,
2013-04-20 10:41:00,53.4,37.2,30.27,SW,219,1.0,5.0,54,0.00,,,0.00,WUHU216DAVISVP2,2013-04-20 14:41:00,
2013-04-20 10:46:00,53.7,36.0,30.27,SW,236,0.0,5.0,51,0.00,,,0.00,WUHU216DAVISVP2,2013-04-20 14:46:00,
2013-04-20 10:51:00,54.2,36.5,30.27,SW,236,0.0,4.0,51,0.00,,,0.00,WUHU216DAVISVP2,2013-04-20 14:51:00,
2013-04-20 10:56:00,54.0,34.2,30.27,SW,219,3.0,4.0,47,0.00,,,0.00,WUHU216DAVISVP2,2013-04-20 14:56:00,
2013-04-20 11:01:00,54.1,35.9,30.27,NE,53,1.0,5.0,50,0.00,,,0.00,WUHU216DAVISVP2,2013-04-20 15:01:00,
2013-04-20 11:06:00,55.2,38.8,30.27,NE,50,3.0,9.0,54,0.00,,,0.00,WUHU216DAVISVP2,2013-04-20 15:06:00,
2013-04-20 11:11:00,56.2,36.2,30.27,South,188,1.0,9.0,47,0.00,,,0.00,WUHU216DAVISVP2,2013-04-20 15:11:00,
2013-04-20 11:16:00,56.5,35.3,30.27,WSW,247,0.0,8.0,45,0.00,,,0.00,WUHU216DAVISVP2,2013-04-20 15:16:00,
2013-04-20 11:21:00,56.2,38.8,30.27,East,84,2.0,8.0,52,0.00,,,0.00,WUHU216DAVISVP2,2013-04-20 15:21:00,
2013-04-20 11:27:00,56.3,37.9,30.27,ENE,77,3.0,8.0,50,0.00,,,0.00,WUHU216DAVISVP2,2013-04-20 15:27:00,
2013-04-20 11:32:00,57.1,38.1,30.26,SW,229,2.0,7.0,49,0.00,,,0.00,WUHU216DAVISVP2,2013-04-20 15:32:00,
2013-04-20 11:37:00,57.0,35.8,30.27,SSW,213,1.0,7.0,45,0.00,,,0.00,WUHU216DAVISVP2,2013-04-20 15:37:00,
2013-04-20 11:42:00,57.1,39.2,30.27,SSW,211,0.0,6.0,51,0.00,,,0.00,WUHU216DAVISVP2,2013-04-20 15:42:00,
2013-04-20 11:47:00,57.3,36.0,30.26,ENE,76,5.0,6.0,45,0.00,,,0.00,WUHU216DAVISVP2,2013-04-20 15:47:00,
2013-04-20 11:52:00,57.6,37.5,30.27,SE,138,0.0,6.0,47,0.00,,,0.00,WUHU216DAVISVP2,2013-04-20 15:52:00,
2013-04-20 11:57:00,56.8,34.4,30.26,WSW,244,4.0,6.0,43,0.00,,,0.00,WUHU216DAVISVP2,2013-04-20 15:57:00,
2013-04-20 12:02:00,57.1,35.9,30.26,WSW,242,2.0,6.0,45,0.00,,,0.00,WUHU216DAVISVP2,2013-04-20 16:02:00,
2013-04-20 12:07:00,57.7,39.7,30.26,ENE,63,8.0,8.0,51,0.00,,,0.00,WUHU216DAVISVP2,2013-04-20 16:07:00,
2013-04-20 12:12:00,58.9,38.1,30.26,NNE,14,2.0,8.0,46,0.00,,,0.00,WUHU216DAVISVP2,2013-04-20 16:12:00,
2013-04-20 12:17:00,59.1,36.5,30.26,ENE,78,2.0,8.0,43,0.00,,,0.00,WUHU216DAVISVP2,2013-04-20 16:17:00,
2013-04-20 12:22:00,59.2,35.4,30.26,NE,42,3.0,8.0,41,0.00,,,0.00,WUHU216DAVISVP2,2013-04-20 16:22:00,
2013-04-20 12:27:00,58.7,35.5,30.26,ESE,116,1.0,7.0,42,0.00,,,0.00,WUHU216DAVISVP2,2013-04-20 16:27:00,
2013-04-20 12:32:00,58.6,36.2,30.25,South,175,2.0,8.0,43,0.00,,,0.00,WUHU216DAVISVP2,2013-04-20 16:32:00,
2013-04-20 12:37:00,58.9,37.5,30.25,WSW,251,3.0,9.0,45,0.00,,,0.00,WUHU216DAVISVP2,2013-04-20 16:37:00,
2013-04-20 12:43:00,59.2,36.0,30.25,SSW,192,5.0,9.0,42,0.00,,,0.00,WUHU216DAVISVP2,2013-04-20 16:43:00,
2013-04-20 12:48:00,59.6,37.0,30.25,South,187,5.0,9.0,43,0.00,,,0.00,WUHU216DAVISVP2,2013-04-20 16:48:00,
2013-04-20 12:53:00,59.5,33.7,30.25,West,261,1.0,8.0,38,0.00,,,0.00,WUHU216DAVISVP2,2013-04-20 16:53:00,
2013-04-20 12:58:00,59.3,35.4,30.25,East,80,3.0,8.0,41,0.00,,,0.00,WUHU216DAVISVP2,2013-04-20 16:58:00,
2013-04-20 13:03:00,60.2,34.5,30.24,ESE,121,1.0,7.0,38,0.00,,,0.00,WUHU216DAVISVP2,2013-04-20 17:03:00,
2013-04-20 13:08:00,61.1,32.3,30.24,West,277,1.0,6.0,34,0.00,,,0.00,WUHU216DAVISVP2,2013-04-20 17:08:00,
2013-04-20 13:13:00,61.5,31.1,30.24,ENE,76,4.0,5.0,32,0.00,,,0.00,WUHU216DAVISVP2,2013-04-20 17:13:00,
2013-04-20 13:18:00,61.6,30.4,30.24,North,10,3.0,8.0,31,0.00,,,0.00,WUHU216DAVISVP2,2013-04-20 17:18:00,
2013-04-20 13:23:00,61.3,32.5,30.24,WSW,252,1.0,8.0,34,0.00,,,0.00,WUHU216DAVISVP2,2013-04-20 17:23:00,
2013-04-20 13:28:00,62.0,36.6,30.24,NNE,26,1.0,8.0,39,0.00,,,0.00,WUHU216DAVISVP2,2013-04-20 17:28:00,
2013-04-20 13:33:00,62.4,32.1,30.23,SW,222,0.0,5.0,32,0.00,,,0.00,WUHU216DAVISVP2,2013-04-20 17:33:00,
2013-04-20 13:38:00,62.4,34.9,30.23,West,271,0.0,5.0,36,0.00,,,0.00,WUHU216DAVISVP2,2013-04-20 17:38:00,
2013-04-20 13:43:00,62.4,31.1,30.23,West,277,1.0,5.0,31,0.00,,,0.00,WUHU216DAVISVP2,2013-04-20 17:43:00,
2013-04-20 13:48:00,62.7,33.0,30.23,SW,226,2.0,11.0,33,0.00,,,0.00,WUHU216DAVISVP2,2013-04-20 17:48:00,
2013-04-20 13:53:00,63.1,33.3,30.23,West,272,0.0,11.0,33,0.00,,,0.00,WUHU216DAVISVP2,2013-04-20 17:53:00,
2013-04-20 13:59:00,62.9,33.3,30.23,SSW,203,0.0,11.0,33,0.00,,,0.00,WUHU216DAVISVP2,2013-04-20 17:59:00,
2013-04-20 14:04:00,62.8,33.0,30.22,SW,232,0.0,11.0,33,0.00,,,0.00,WUHU216DAVISVP2,2013-04-20 18:04:00,
2013-04-20 14:09:00,62.8,31.5,30.23,WNW,290,3.0,11.0,31,0.00,,,0.00,WUHU216DAVISVP2,2013-04-20 18:09:00,
2013-04-20 14:14:00,62.7,33.0,30.22,ENE,61,9.0,11.0,33,0.00,,,0.00,WUHU216DAVISVP2,2013-04-20 18:14:00,
2013-04-20 14:19:00,62.9,33.1,30.22,NE,53,2.0,11.0,33,0.00,,,0.00,WUHU216DAVISVP2,2013-04-20 18:19:00,
2013-04-20 14:24:00,63.3,34.4,30.22,NW,321,2.0,11.0,34,0.00,,,0.00,WUHU216DAVISVP2,2013-04-20 18:24:00,
2013-04-20 14:29:00,63.8,33.2,30.22,North,5,2.0,9.0,32,0.00,,,0.00,WUHU216DAVISVP2,2013-04-20 18:29:00,
2013-04-20 14:34:00,63.7,35.3,30.22,ENE,63,1.0,9.0,35,0.00,,,0.00,WUHU216DAVISVP2,2013-04-20 18:34:00,
2013-04-20 14:39:00,63.8,35.4,30.22,SW,233,0.0,9.0,35,0.00,,,0.00,WUHU216DAVISVP2,2013-04-20 18:39:00,
2013-04-20 14:44:00,64.5,36.8,30.22,West,273,2.0,8.0,36,0.00,,,0.00,WUHU216DAVISVP2,2013-04-20 18:44:00,
2013-04-20 14:49:00,64.9,32.5,30.22,WSW,242,1.0,8.0,30,0.00,,,0.00,WUHU216DAVISVP2,2013-04-20 18:49:00,
2013-04-20 14:54:00,64.2,32.1,30.22,SSW,204,2.0,9.0,30,0.00,,,0.00,WUHU216DAVISVP2,2013-04-20 18:54:00,
2013-04-20 14:59:00,64.2,32.7,30.22,SSW,205,0.0,9.0,31,0.00,,,0.00,WUHU216DAVISVP2,2013-04-20 18:59:00,
2013-04-20 15:04:00,64.6,33.1,30.22,SW,218,2.0,9.0,31,0.00,,,0.00,WUHU216DAVISVP2,2013-04-20 19:04:00,
2013-04-20 15:09:00,64.9,32.5,30.22,NE,51,5.0,9.0,30,0.00,,,0.00,WUHU216DAVISVP2,2013-04-20 19:09:00,
2013-04-20 15:15:00,65.1,32.9,30.22,WNW,300,0.0,8.0,30,0.00,,,0.00,WUHU216DAVISVP2,2013-04-20 19:15:00,
2013-04-20 15:20:00,64.8,31.6,30.22,WNW,300,1.0,7.0,29,0.00,,,0.00,WUHU216DAVISVP2,2013-04-20 19:20:00,
2013-04-20 15:25:00,65.1,34.3,30.22,NE,40,3.0,7.0,32,0.00,,,0.00,WUHU216DAVISVP2,2013-04-20 19:25:00,
2013-04-20 15:30:00,65.7,34.0,30.22,WSW,248,4.0,4.0,31,0.00,,,0.00,WUHU216DAVISVP2,2013-04-20 19:30:00,
2013-04-20 15:35:00,65.8,32.6,30.22,ESE,102,4.0,7.0,29,0.00,,,0.00,WUHU216DAVISVP2,2013-04-20 19:35:00,
2013-04-20 15:40:00,65.5,31.3,30.21,East,90,3.0,7.0,28,0.00,,,0.00,WUHU216DAVISVP2,2013-04-20 19:40:00,
2013-04-20 15:45:00,65.6,33.1,30.21,WSW,240,2.0,8.0,30,0.00,,,0.00,WUHU216DAVISVP2,2013-04-20 19:45:00,
2013-04-20 15:50:00,65.7,32.5,30.21,WSW,256,2.0,8.0,29,0.00,,,0.00,WUHU216DAVISVP2,2013-04-20 19:50:00,
2013-04-20 15:55:00,65.5,33.0,30.21,North,5,2.0,8.0,30,0.00,,,0.00,WUHU216DAVISVP2,2013-04-20 19:55:00,
2013-04-20 16:00:00,65.0,31.8,30.21,South,180,1.0,8.0,29,0.00,,,0.00,WUHU216DAVISVP2,2013-04-20 20:00:00,
2013-04-20 16:06:00,64.6,32.4,30.21,South,191,3.0,7.0,30,0.00,,,0.00,WUHU216DAVISVP2,2013-04-20 20:06:00,
2013-04-20 16:11:00,64.3,31.2,30.21,SSW,197,1.0,4.0,29,0.00,,,0.00,WUHU216DAVISVP2,2013-04-20 20:11:00,
2013-04-20 16:16:00,64.5,31.3,30.21,WSW,237,4.0,4.0,29,0.00,,,0.00,WUHU216DAVISVP2,2013-04-20 20:16:00,
2013-04-20 16:21:00,64.7,34.9,30.20,SW,233,1.0,4.0,33,0.00,,,0.00,WUHU216DAVISVP2,2013-04-20 20:21:00,
2013-04-20 16:26:00,65.1,33.5,30.20,West,270,1.0,4.0,31,0.00,,,0.00,WUHU216DAVISVP2,2013-04-20 20:26:00,
2013-04-20 16:31:00,65.0,34.2,30.21,SSW,198,3.0,4.0,32,0.00,,,0.00,WUHU216DAVISVP2,2013-04-20 20:31:00,
2013-04-20 16:36:00,65.0,31.8,30.21,North,5,0.0,5.0,29,0.00,,,0.00,WUHU216DAVISVP2,2013-04-20 20:36:00,
2013-04-20 16:41:00,64.6,30.6,30.21,North,5,0.0,5.0,28,0.00,,,0.00,WUHU216DAVISVP2,2013-04-20 20:41:00,
2013-04-20 16:46:00,64.5,33.0,30.21,NW,305,0.0,5.0,31,0.00,,,0.00,WUHU216DAVISVP2,2013-04-20 20:46:00,
2013-04-20 16:51:00,64.6,33.9,30.21,WSW,243,0.0,5.0,32,0.00,,,0.00,WUHU216DAVISVP2,2013-04-20 20:51:00,
2013-04-20 16:56:00,64.8,34.0,30.20,NNE,19,1.0,3.0,32,0.00,,,0.00,WUHU216DAVISVP2,2013-04-20 20:56:00,
2013-04-20 17:01:00,64.8,32.4,30.21,NNE,25,0.0,3.0,30,0.00,,,0.00,WUHU216DAVISVP2,2013-04-20 21:01:00,
2013-04-20 17:06:00,64.7,32.3,30.20,ESE,113,2.0,4.0,30,0.00,,,0.00,WUHU216DAVISVP2,2013-04-20 21:06:00,
2013-04-20 17:11:00,64.6,34.6,30.21,SE,134,0.0,4.0,33,0.00,,,0.00,WUHU216DAVISVP2,2013-04-20 21:11:00,
2013-04-20 17:16:00,64.5,34.0,30.20,SW,228,2.0,5.0,32,0.00,,,0.00,WUHU216DAVISVP2,2013-04-20 21:16:00,
2013-04-20 17:21:00,64.5,34.5,30.21,SW,219,1.0,5.0,33,0.00,,,0.00,WUHU216DAVISVP2,2013-04-20 21:21:00,
2013-04-20 17:27:00,64.5,31.3,30.21,SW,228,3.0,5.0,29,0.00,,,0.00,WUHU216DAVISVP2,2013-04-20 21:27:00,
2013-04-20 17:32:00,64.1,32.6,30.21,SW,227,2.0,5.0,31,0.00,,,0.00,WUHU216DAVISVP2,2013-04-20 21:32:00,
2013-04-20 17:37:00,64.1,32.6,30.21,WNW,299,2.0,5.0,31,0.00,,,0.00,WUHU216DAVISVP2,2013-04-20 21:37:00,
2013-04-20 17:42:00,64.1,35.1,30.21,ESE,106,2.0,10.0,34,0.00,,,0.00,WUHU216DAVISVP2,2013-04-20 21:42:00,
2013-04-20 17:47:00,64.2,32.7,30.21,SW,229,2.0,10.0,31,0.00,,,0.00,WUHU216DAVISVP2,2013-04-20 21:47:00,
2013-04-20 17:52:00,64.1,32.6,30.21,West,259,0.0,9.0,31,0.00,,,0.00,WUHU216DAVISVP2,2013-04-20 21:52:00,
2013-04-20 17:57:00,64.3,35.1,30.21,West,260,0.0,9.0,34,0.00,,,0.00,WUHU216DAVISVP2,2013-04-20 21:57:00,
2013-04-20 18:02:00,64.1,33.4,30.21,West,259,0.0,5.0,32,0.00,,,0.00,WUHU216DAVISVP2,2013-04-20 22:02:00,
2013-04-20 18:07:00,63.8,33.2,30.21,West,260,0.0,3.0,32,0.00,,,0.00,WUHU216DAVISVP2,2013-04-20 22:07:00,
2013-04-20 18:12:00,63.6,32.2,30.21,West,261,0.0,3.0,31,0.00,,,0.00,WUHU216DAVISVP2,2013-04-20 22:12:00,
2013-04-20 18:17:00,63.6,32.4,30.21,SW,229,0.0,5.0,31,0.00,,,0.00,WUHU216DAVISVP2,2013-04-20 22:17:00,
2013-04-20 18:22:00,63.3,34.2,30.21,SW,229,0.0,5.0,34,0.00,,,0.00,WUHU216DAVISVP2,2013-04-20 22:22:00,
2013-04-20 18:27:00,63.0,33.2,30.22,SW,229,0.0,5.0,33,0.00,,,0.00,WUHU216DAVISVP2,2013-04-20 22:27:00,
2013-04-20 18:32:00,62.7,32.2,30.22,SW,229,0.0,5.0,32,0.00,,,0.00,WUHU216DAVISVP2,2013-04-20 22:32:00,
2013-04-20 18:38:00,62.6,33.8,30.22,SW,229,0.0,2.0,34,0.00,,,0.00,WUHU216DAVISVP2,2013-04-20 22:38:00,
2013-04-20 18:43:00,62.5,32.8,30.21,SW,229,1.0,3.0,33,0.00,,,0.00,WUHU216DAVISVP2,2013-04-20 22:43:00,
2013-04-20 18:48:00,62.4,34.2,30.21,WNW,286,2.0,7.0,35,0.00,,,0.00,WUHU216DAVISVP2,2013-04-20 22:48:00,
2013-04-20 18:53:00,62.2,34.0,30.21,NE,51,4.0,7.0,35,0.00,,,0.00,WUHU216DAVISVP2,2013-04-20 22:53:00,
2013-04-20 18:58:00,61.9,30.7,30.21,NNE,15,2.0,7.0,31,0.00,,,0.00,WUHU216DAVISVP2,2013-04-20 22:58:00,
2013-04-20 19:03:00,61.6,32.7,30.21,NNE,32,1.0,12.0,34,0.00,,,0.00,WUHU216DAVISVP2,2013-04-20 23:03:00,
2013-04-20 19:08:00,61.2,31.6,30.21,ENE,65,9.0,12.0,33,0.00,,,0.00,WUHU216DAVISVP2,2013-04-20 23:08:00,
2013-04-20 19:13:00,60.8,31.3,30.22,NNE,17,1.0,12.0,33,0.00,,,0.00,WUHU216DAVISVP2,2013-04-20 23:13:00,
2013-04-20 19:18:00,60.7,33.4,30.22,ENE,63,0.0,12.0,36,0.00,,,0.00,WUHU216DAVISVP2,2013-04-20 23:18:00,
2013-04-20 19:23:00,60.4,30.9,30.21,NE,46,3.0,10.0,33,0.00,,,0.00,WUHU216DAVISVP2,2013-04-20 23:23:00,
2013-04-20 19:28:00,60.1,31.4,30.22,NE,51,0.0,7.0,34,0.00,,,0.00,WUHU216DAVISVP2,2013-04-20 23:28:00,
2013-04-20 19:33:00,59.8,32.6,30.22,NNE,33,2.0,7.0,36,0.00,,,0.00,WUHU216DAVISVP2,2013-04-20 23:33:00,
2013-04-20 19:38:00,59.5,31.6,30.22,NE,53,7.0,8.0,35,0.00,,,0.00,WUHU216DAVISVP2,2013-04-20 23:38:00,
2013-04-20 19:43:00,59.2,32.0,30.22,NE,44,2.0,8.0,36,0.00,,,0.00,WUHU216DAVISVP2,2013-04-20 23:43:00,
2013-04-20 19:48:00,58.9,31.1,30.22,NE,44,0.0,8.0,35,0.00,,,0.00,WUHU216DAVISVP2,2013-04-20 23:48:00,
2013-04-20 19:54:00,58.7,31.6,30.22,NE,44,0.0,7.0,36,0.00,,,0.00,WUHU216DAVISVP2,2013-04-20 23:54:00,
2013-04-20 19:59:00,58.4,32.0,30.22,ENE,67,1.0,7.0,37,0.00,,,0.00,WUHU216DAVISVP2,2013-04-20 23:59:00,
2013-04-20 20:04:00,57.8,31.5,30.23,ENE,67,0.0,7.0,37,0.00,,,0.00,WUHU216DAVISVP2,2013-04-21 00:04:00,
2013-04-20 20:09:00,57.4,36.1,30.23,ENE,68,0.0,5.0,45,0.00,,,0.00,WUHU216DAVISVP2,2013-04-21 00:09:00,
2013-04-20 20:14:00,56.6,36.5,30.23,ENE,68,0.0,5.0,47,0.00,,,0.00,WUHU216DAVISVP2,2013-04-21 00:14:00,
2013-04-20 20:19:00,55.9,34.8,30.23,ENE,68,0.0,1.0,45,0.00,,,0.00,WUHU216DAVISVP2,2013-04-21 00:19:00,
2013-04-20 20:24:00,55.6,32.7,30.23,ENE,69,0.0,1.0,42,0.00,,,0.00,WUHU216DAVISVP2,2013-04-21 00:24:00,
2013-04-20 20:29:00,55.5,33.2,30.24,ENE,69,0.0,2.0,43,0.00,,,0.00,WUHU216DAVISVP2,2013-04-21 00:29:00,
2013-04-20 20:34:00,55.2,33.0,30.24,ENE,69,0.0,2.0,43,0.00,,,0.00,WUHU216DAVISVP2,2013-04-21 00:34:00,
2013-04-20 20:39:00,54.9,34.4,30.24,ENE,69,0.0,2.0,46,0.00,,,0.00,WUHU216DAVISVP2,2013-04-21 00:39:00,
2013-04-20 20:44:00,54.5,33.5,30.24,ENE,69,0.0,2.0,45,0.00,,,0.00,WUHU216DAVISVP2,2013-04-21 00:44:00,
2013-04-20 20:49:00,54.1,33.1,30.24,ENE,69,2.0,2.0,45,0.00,,,0.00,WUHU216DAVISVP2,2013-04-21 00:49:00,
2013-04-20 20:54:00,53.7,35.5,30.25,ENE,69,0.0,2.0,50,0.00,,,0.00,WUHU216DAVISVP2,2013-04-21 00:54:00,
2013-04-20 20:59:00,53.2,36.0,30.25,ENE,69,0.0,2.0,52,0.00,,,0.00,WUHU216DAVISVP2,2013-04-21 00:59:00,
2013-04-20 21:04:00,52.6,37.4,30.25,ENE,69,0.0,2.0,56,0.00,,,0.00,WUHU216DAVISVP2,2013-04-21 01:04:00,
2013-04-20 21:09:00,51.9,37.7,30.26,ENE,69,0.0,1.0,58,0.00,,,0.00,WUHU216DAVISVP2,2013-04-21 01:09:00,
2013-04-20 21:15:00,51.2,37.9,30.26,ENE,69,0.0,1.0,60,0.00,,,0.00,WUHU216DAVISVP2,2013-04-21 01:15:00,
2013-04-20 21:20:00,50.6,37.3,30.26,ENE,69,0.0,1.0,60,0.00,,,0.00,WUHU216DAVISVP2,2013-04-21 01:20:00,
2013-04-20 21:25:00,50.1,36.7,30.27,ENE,69,0.0,1.0,60,0.00,,,0.00,WUHU216DAVISVP2,2013-04-21 01:25:00,
2013-04-20 21:30:00,49.7,37.2,30.27,ENE,69,0.0,1.0,62,0.00,,,0.00,WUHU216DAVISVP2,2013-04-21 01:30:00,
2013-04-20 21:35:00,49.4,37.3,30.27,ENE,69,0.0,1.0,63,0.00,,,0.00,WUHU216DAVISVP2,2013-04-21 01:35:00,
2013-04-20 21:40:00,49.0,37.7,30.27,ENE,69,0.0,1.0,65,0.00,,,0.00,WUHU216DAVISVP2,2013-04-21 01:40:00,
2013-04-20 21:45:00,48.7,37.8,30.28,ENE,69,0.0,1.0,66,0.00,,,0.00,WUHU216DAVISVP2,2013-04-21 01:45:00,
2013-04-20 21:50:00,48.4,37.9,30.28,ENE,69,0.0,1.0,67,0.00,,,0.00,WUHU216DAVISVP2,2013-04-21 01:50:00,
2013-04-20 21:55:00,48.0,37.2,30.28,ENE,69,0.0,1.0,66,0.00,,,0.00,WUHU216DAVISVP2,2013-04-21 01:55:00,
2013-04-20 22:00:00,47.7,37.7,30.29,ENE,69,0.0,0.0,68,0.00,,,0.00,WUHU216DAVISVP2,2013-04-21 02:00:00,
2013-04-20 22:05:00,47.4,37.7,30.29,ENE,69,0.0,0.0,69,0.00,,,0.00,WUHU216DAVISVP2,2013-04-21 02:05:00,
2013-04-20 22:10:00,47.2,37.9,30.29,ENE,69,0.0,0.0,70,0.00,,,0.00,WUHU216DAVISVP2,2013-04-21 02:10:00,
2013-04-20 22:15:00,46.9,37.7,30.29,ENE,69,0.0,0.0,70,0.00,,,0.00,WUHU216DAVISVP2,2013-04-21 02:15:00,
2013-04-20 22:20:00,46.7,37.8,30.30,ENE,69,0.0,0.0,71,0.00,,,0.00,WUHU216DAVISVP2,2013-04-21 02:20:00,
2013-04-20 22:26:00,46.4,37.2,30.30,ENE,69,0.0,0.0,70,0.00,,,0.00,WUHU216DAVISVP2,2013-04-21 02:26:00,
2013-04-20 22:31:00,46.2,37.4,30.30,ENE,69,0.0,0.0,71,0.00,,,0.00,WUHU216DAVISVP2,2013-04-21 02:31:00,
2013-04-20 22:36:00,46.0,37.6,30.30,ENE,69,0.0,0.0,72,0.00,,,0.00,WUHU216DAVISVP2,2013-04-21 02:36:00,
2013-04-20 22:41:00,45.8,36.7,30.30,ENE,69,0.0,0.0,70,0.00,,,0.00,WUHU216DAVISVP2,2013-04-21 02:41:00,
2013-04-20 22:46:00,45.8,35.9,30.30,ENE,69,0.0,0.0,68,0.00,,,0.00,WUHU216DAVISVP2,2013-04-21 02:46:00,
2013-04-20 22:51:00,45.7,35.8,30.29,ENE,69,0.0,0.0,68,0.00,,,0.00,WUHU216DAVISVP2,2013-04-21 02:51:00,
2013-04-20 22:56:00,45.7,37.3,30.30,ENE,69,0.0,0.0,72,0.00,,,0.00,WUHU216DAVISVP2,2013-04-21 02:56:00,
2013-04-20 23:01:00,45.7,36.6,30.30,ENE,69,0.0,0.0,70,0.00,,,0.00,WUHU216DAVISVP2,2013-04-21 03:01:00,
2013-04-20 23:06:00,45.8,36.7,30.30,ENE,69,0.0,0.0,70,0.00,,,0.00,WUHU216DAVISVP2,2013-04-21 03:06:00,
2013-04-20 23:11:00,45.8,35.9,30.30,ENE,69,0.0,0.0,68,0.00,,,0.00,WUHU216DAVISVP2,2013-04-21 03:11:00,
2013-04-20 23:16:00,45.6,37.5,30.30,ENE,69,0.0,0.0,73,0.00,,,0.00,WUHU216DAVISVP2,2013-04-21 03:16:00,
2013-04-20 23:21:00,45.4,36.6,30.30,ENE,69,0.0,0.0,71,0.00,,,0.00,WUHU216DAVISVP2,2013-04-21 03:21:00,
2013-04-20 23:26:00,45.2,36.4,30.30,ENE,69,0.0,0.0,71,0.00,,,0.00,WUHU216DAVISVP2,2013-04-21 03:26:00,
2013-04-20 23:31:00,45.1,37.4,30.31,ENE,69,0.0,0.0,74,0.00,,,0.00,WUHU216DAVISVP2,2013-04-21 03:31:00,
2013-04-20 23:36:00,45.1,37.4,30.31,ENE,69,0.0,1.0,74,0.00,,,0.00,WUHU216DAVISVP2,2013-04-21 03:36:00,
2013-04-20 23:41:00,45.0,37.3,30.31,ENE,69,0.0,1.0,74,0.00,,,0.00,WUHU216DAVISVP2,2013-04-21 03:41:00,
2013-04-20 23:47:00,45.0,37.3,30.31,ENE,69,0.0,1.0,74,0.00,,,0.00,WUHU216DAVISVP2,2013-04-21 03:47:00,
2013-04-20 23:52:00,45.0,36.2,30.31,ENE,69,0.0,1.0,71,0.00,,,0.00,WUHU216DAVISVP2,2013-04-21 03:52:00,
2013-04-20 23:57:00,45.1,36.0,30.31,ENE,69,0.0,0.0,70,0.00,,,0.00,WUHU216DAVISVP2,2013-04-21 03:57:00,